GAOFEN 3 DEB, 42679

Orbit data source: Space-Track

GAOFEN 3 DEB, 42679 is space debris in SSO originally from a launch on Tue, 09 Aug 2016 UTC launched from the Taiyaun Space Center, China (TSC). Debris objects in space refer to the collection of defunct objects orbiting the Earth. Examples of debris include non-operational satellites, rocket bodies, and fragments generated from explosions, collisions, or faulty payload assembly.

Loading next visibility...
Identifier
42679, 2016-049D
Orbit
SSO
Country
Flag of CNCN / PRC
Related business
Manufacturer
Unknown
Mission
Spacecraft
Bus & Motor
Unknown
Mass
Unknown
Launch date (UTC)
2016-08-09 (9 years ago)
Launch vehicle
Unknown
Launch site
Taiyaun Space Center, China (TSC)
Object type
Payload
Rocket body
Debris
Shape & HBR
Unknown shape, 0.1 m
Radar Cross Section
Small (<0.1 m²)

Expand to show TLE details & history
Last TLE update: 12 hours ago

TLE from 12 hours ago
0 GAOFEN 3 DEB
1 42679U 16049D   25341.31991660  .00000459  00000-0  13929-3 0  9993
2 42679  98.3232 351.1473 0005998 210.8210 149.2630 14.46551365492095
Epoch: 2025-12-07T07:40Z
TLE epoch observation values (Epoch: 2025-12-07T07:40:40.794Z)
Latitude
-0.0001°
Longitude
159.64234°
Altitude
743.567 km
Speed
7.481 km/s
True Right ascension
23h 24m 35s
True Declination
0° 00' 00"
Sunlit
Object was in daylight at epoch
Visualization orbit readout
Latitude
Unknown
Longitude
Unknown
Altitude
Unknown
Speed
Unknown
Apparent Right ascension
Unknown
Apparent Declination
Unknown
Sunlit
N/A
Visualization observer readout
Local Sidereal Time
17:24:26
Azimuth
Unknown
Elevation
Unknown
Doppler factor
Unknown
Orbital elements
Apogee altitude
738.305 km
Perigee altitude
729.773 km
Semi-major axis
7,112.176 km
Eccentricity
0.0006
Inclination
98.3232°
RAAN
351.1473°
Arg. of periapsis
210.821°
True anomaly
149.29811°
Mean anomaly
149.263°
Eccentric anomaly
149.28056°
Mean motion
3.61859 °/min
Orbital period
99.49 mins
BSTAR
0.00013929
Loading maneuver chart data...
Computing Atmospheric mass density...
Loading historical data...
Loading historical data...
Loading historical data...
Loading historical data...
Loading historical data...
Loading historical data...
Loading historical data...
Other satellites on launch #49 in the year 2016 (2016-08-09 UTC)

Documentation

Showing up to 5 results
|